When you browse on this site, cookies collect data to enhance your experience and personalize the content and advertising you see.
Visit our Privacy Policy to learn more. By continuing to use the site, you agree to this use of cookies and data.
  • In Lithuania
  • List of Countries
  • For 7 days
  • Water Temperature
  • Satellite Maps
  • Weather Map
  • Weather Widgets
  • user-avatar
    Login

    Hourly Weather Mahin

    Today, 19 January, Saturday

    Time Temperature Precipitation Wind Pressure Humidity
    00:00 -1°C° 0 mm 4 mps 763 mmHg 90%
    01:00 -1°C° 0 mm 4 mps 763 mmHg 90%
    02:00 -1°C° 0 mm 4 mps 763 mmHg 90%
    03:00 0°C° 0 mm 3 mps 763 mmHg 93%
    04:00 0°C° 0 mm 3 mps 762 mmHg 92%
    05:00 -1°C° 0 mm 4 mps 762 mmHg 92%
    06:00 -1°C° 0 mm 4 mps 762 mmHg 92%
    07:00 -1°C° 0 mm 4 mps 762 mmHg 93%
    08:00 -1°C° 0 mm 4 mps 762 mmHg 93%
    09:00 0°C° 0 mm 4 mps 762 mmHg 97%
    10:00 0°C° 0 mm 4 mps 762 mmHg 97%
    11:00 0°C° 0 mm 4 mps 762 mmHg 98%
    12:00 +1°C° 0 mm 4 mps 762 mmHg 99%
    13:00 +1°C° 0.1 mm 4 mps 762 mmHg 99%
    14:00 +1°C° 0.1 mm 4 mps 762 mmHg 99%
    15:00 +2°C° 0 mm 3 mps 761 mmHg 99%
    16:00 +2°C° 0.1 mm 3 mps 762 mmHg 98%
    17:00 +1°C° 0.1 mm 3 mps 762 mmHg 98%
    18:00 +1°C° 0.1 mm 3 mps 762 mmHg 98%
    19:00 +1°C° 0.1 mm 3 mps 762 mmHg 97%
    20:00 +1°C° 0.1 mm 3 mps 763 mmHg 96%
    21:00 0°C° 0.1 mm 3 mps 763 mmHg 96%
    22:00 -1°C° 0 mm 3 mps 764 mmHg 94%
    23:00 -2°C° 0 mm 3 mps 765 mmHg 92%

    Tomorrow, 20 January, Sunday

    Time Temperature Precipitation Wind Pressure Humidity
    00:00 -2°C° 0 mm 3 mps 765 mmHg 90%
    01:00 -4°C° 0 mm 3 mps 766 mmHg 89%
    02:00 -5°C° 0 mm 3 mps 766 mmHg 87%
    03:00 -6°C° 0 mm 3 mps 767 mmHg 86%
    04:00 -7°C° 0 mm 3 mps 767 mmHg 84%
    05:00 -7°C° 0 mm 3 mps 768 mmHg 83%
    06:00 -8°C° 0 mm 3 mps 768 mmHg 81%
    07:00 -7°C° 0 mm 2 mps 768 mmHg 80%
    08:00 -7°C° 0 mm 2 mps 769 mmHg 80%
    09:00 -7°C° 0 mm 2 mps 769 mmHg 79%
    10:00 -6°C° 0 mm 2 mps 769 mmHg 77%
    11:00 -5°C° 0 mm 2 mps 769 mmHg 75%
    12:00 -4°C° 0 mm 2 mps 769 mmHg 73%
    13:00 -4°C° 0 mm 2 mps 769 mmHg 73%
    14:00 -3°C° 0 mm 2 mps 769 mmHg 74%
    15:00 -3°C° 0 mm 2 mps 768 mmHg 74%
    16:00 -4°C° 0 mm 2 mps 768 mmHg 77%
    17:00 -4°C° 0 mm 2 mps 768 mmHg 80%
    18:00 -5°C° 0 mm 2 mps 768 mmHg 83%
    19:00 -5°C° 0 mm 2 mps 768 mmHg 83%
    20:00 -5°C° 0 mm 2 mps 768 mmHg 83%
    21:00 -6°C° 0 mm 3 mps 767 mmHg 83%
    22:00 -5°C° 0 mm 2 mps 767 mmHg 84%
    23:00 -5°C° 0 mm 2 mps 767 mmHg 84%

    Day after tomorrow, 21 January, Monday

    Time Temperature Precipitation Wind Pressure Humidity
    00:00 -5°C° 0 mm 2 mps 766 mmHg 84%
    01:00 -4°C° 0 mm 2 mps 766 mmHg 85%
    02:00 -4°C° 0 mm 2 mps 766 mmHg 86%
    03:00 -3°C° 0 mm 2 mps 765 mmHg 87%
    04:00 -3°C° 0 mm 2 mps 765 mmHg 90%
    05:00 -2°C° 0 mm 2 mps 764 mmHg 92%
    06:00 -2°C° 0 mm 2 mps 763 mmHg 94%
    07:00 -1°C° 0.1 mm 2 mps 763 mmHg 95%
    08:00 0°C° 0.1 mm 3 mps 762 mmHg 95%
    09:00 0°C° 0.1 mm 3 mps 762 mmHg 95%
    10:00 +1°C° 0 mm 3 mps 761 mmHg 93%
    11:00 +1°C° 0 mm 4 mps 761 mmHg 91%
    12:00 +1°C° 0 mm 4 mps 760 mmHg 89%
    13:00 +3°C° 0.1 mm 4 mps 759 mmHg 87%
    14:00 +3°C° 0.1 mm 4 mps 759 mmHg 86%
    15:00 +3°C° 0.1 mm 4 mps 758 mmHg 84%
    16:00 +3°C° 0.7 mm 4 mps 758 mmHg 87%
    17:00 +1°C° 0.7 mm 4 mps 758 mmHg 90%
    18:00 +2°C° 0.7 mm 3 mps 758 mmHg 93%
    19:00 0°C° 1.1 mm 4 mps 758 mmHg 93%
    20:00 -1°C° 1.1 mm 5 mps 759 mmHg 93%
    21:00 -2°C° 1.1 mm 5 mps 759 mmHg 93%
    22:00 -4°C° 0.3 mm 6 mps 760 mmHg 90%
    23:00 -5°C° 0.3 mm 6 mps 761 mmHg 87%

    22 January, Tuesday

    Time Temperature Precipitation Wind Pressure Humidity
    00:00 -6°C° 0.3 mm 6 mps 762 mmHg 85%
    01:00 -8°C° 0 mm 6 mps 763 mmHg 84%
    02:00 -7°C° 0 mm 5 mps 764 mmHg 83%
    03:00 -8°C° 0 mm 5 mps 764 mmHg 83%
    04:00 -10°C° 0 mm 5 mps 765 mmHg 83%
    05:00 -10°C° 0 mm 4 mps 765 mmHg 84%
    06:00 -10°C° 0 mm 4 mps 766 mmHg 85%
    07:00 -11°C° 0 mm 4 mps 767 mmHg 85%
    08:00 -11°C° 0 mm 4 mps 767 mmHg 85%
    09:00 -12°C° 0 mm 3 mps 768 mmHg 84%
    10:00 -10°C° 0 mm 3 mps 768 mmHg 82%
    11:00 -9°C° 0 mm 3 mps 768 mmHg 79%
    12:00 -9°C° 0 mm 3 mps 769 mmHg 76%
    13:00 -8°C° 0 mm 3 mps 769 mmHg 76%
    14:00 -8°C° 0 mm 3 mps 768 mmHg 75%
    15:00 -8°C° 0 mm 3 mps 768 mmHg 74%
    16:00 -8°C° 0 mm 3 mps 768 mmHg 76%
    17:00 -9°C° 0 mm 3 mps 768 mmHg 79%
    18:00 -9°C° 0 mm 3 mps 768 mmHg 81%
    19:00 -9°C° 0 mm 3 mps 768 mmHg 81%
    20:00 -9°C° 0 mm 3 mps 768 mmHg 82%
    21:00 -10°C° 0 mm 3 mps 768 mmHg 83%
    22:00 -10°C° 0 mm 3 mps 768 mmHg 83%
    23:00 -10°C° 0 mm 3 mps 768 mmHg 84%

    23 January, Wednesday

    Time Temperature Precipitation Wind Pressure Humidity
    00:00 -10°C° 0 mm 3 mps 768 mmHg 84%
    01:00 -10°C° 0 mm 3 mps 768 mmHg 84%
    02:00 -10°C° 0 mm 4 mps 767 mmHg 84%
    03:00 -10°C° 0 mm 4 mps 767 mmHg 84%
    04:00 -10°C° 0 mm 4 mps 767 mmHg 84%
    05:00 -10°C° 0 mm 4 mps 767 mmHg 84%
    06:00 -10°C° 0 mm 4 mps 766 mmHg 83%
    07:00 -10°C° 0 mm 4 mps 766 mmHg 82%
    08:00 -9°C° 0 mm 4 mps 766 mmHg 81%
    09:00 -10°C° 0 mm 5 mps 766 mmHg 79%
    10:00 -8°C° 0 mm 5 mps 766 mmHg 78%
    11:00 -7°C° 0 mm 5 mps 766 mmHg 76%
    12:00 -6°C° 0 mm 5 mps 766 mmHg 74%
    13:00 -6°C° 0.1 mm 5 mps 765 mmHg 77%
    14:00 -4°C° 0.1 mm 4 mps 765 mmHg 79%
    15:00 -4°C° 0.1 mm 4 mps 764 mmHg 82%
    16:00 -5°C° 0.5 mm 5 mps 764 mmHg 86%
    17:00 -5°C° 0.5 mm 5 mps 764 mmHg 90%
    18:00 -5°C° 0.5 mm 5 mps 764 mmHg 93%
    19:00 -5°C° 0.8 mm 5 mps 764 mmHg 94%
    20:00 -5°C° 0.8 mm 5 mps 764 mmHg 94%
    21:00 -4°C° 0.8 mm 4 mps 763 mmHg 94%
    22:00 -4°C° 0.5 mm 4 mps 763 mmHg 95%
    23:00 -3°C° 0.5 mm 4 mps 763 mmHg 95%

    24 January, Thursday

    Time Temperature Precipitation Wind Pressure Humidity
    00:00 -2°C° 0.5 mm 3 mps 763 mmHg 95%
    01:00 -2°C° 0.3 mm 3 mps 763 mmHg 95%
    02:00 -2°C° 0.3 mm 3 mps 763 mmHg 95%
    03:00 -2°C° 0.3 mm 3 mps 762 mmHg 95%
    04:00 -2°C° 0.2 mm 3 mps 762 mmHg 95%
    05:00 -2°C° 0.2 mm 3 mps 762 mmHg 95%
    06:00 -2°C° 0.2 mm 3 mps 762 mmHg 95%
    07:00 -1°C° 0.4 mm 3 mps 762 mmHg 96%
    08:00 -1°C° 0.4 mm 3 mps 763 mmHg 96%
    09:00 -1°C° 0.4 mm 3 mps 763 mmHg 96%
    10:00 -1°C° 0.1 mm 3 mps 763 mmHg 97%
    11:00 -1°C° 0.1 mm 3 mps 763 mmHg 98%
    12:00 0°C° 0.1 mm 3 mps 763 mmHg 99%
    13:00 0°C° 0 mm 3 mps 763 mmHg 99%
    14:00 0°C° 0 mm 3 mps 762 mmHg 99%
    15:00 -1°C° 0 mm 4 mps 762 mmHg 99%
    16:00 -1°C° 0 mm 4 mps 762 mmHg 98%
    17:00 -2°C° 0 mm 4 mps 762 mmHg 97%
    18:00 -2°C° 0 mm 4 mps 762 mmHg 95%
    19:00 -2°C° 0 mm 4 mps 762 mmHg 94%
    20:00 -2°C° 0 mm 4 mps 762 mmHg 94%
    21:00 -2°C° 0 mm 4 mps 762 mmHg 93%
    22:00 -2°C° 0 mm 4 mps 762 mmHg 93%
    23:00 -2°C° 0 mm 4 mps 761 mmHg 93%
    Show more